Time,TemperatureF,DewpointF,PressureIn,WindDirection,WindDirectionDegrees,WindSpeedMPH,WindSpeedGustMPH,Humidity,HourlyPrecipIn,Conditions,Clouds,dailyrainin,SoftwareType,DateUTC
2013-01-11 00:03:00,54.7,34.2,27.26,SSW,203,2.5,5.4,46,0.00,,,0.00,WUHU216HW,2013-01-11 07:03:00,
2013-01-11 00:08:00,54.5,35.2,27.26,SW,225,2.5,5.6,48,0.00,,,0.00,WUHU216HW,2013-01-11 07:08:00,
2013-01-11 00:13:00,52.9,35.7,27.27,SW,225,5.6,9.2,52,0.00,,,0.00,WUHU216HW,2013-01-11 07:13:00,
2013-01-11 00:18:00,50.2,35.6,27.27,WSW,248,6.0,9.2,57,0.00,,,0.00,WUHU216HW,2013-01-11 07:18:00,
2013-01-11 00:23:00,48.4,35.3,27.27,West,270,3.1,7.6,60,0.00,,,0.00,WUHU216HW,2013-01-11 07:23:00,
2013-01-11 00:28:00,47.3,35.0,27.28,West,270,5.6,7.6,62,0.00,,,0.00,WUHU216HW,2013-01-11 07:28:00,
2013-01-11 00:33:00,46.6,35.5,27.28,WNW,293,9.2,9.2,65,0.00,,,0.00,WUHU216HW,2013-01-11 07:33:00,
2013-01-11 00:38:00,46.1,35.4,27.28,West,270,5.4,9.2,66,0.00,,,0.00,WUHU216HW,2013-01-11 07:38:00,
2013-01-11 00:43:00,45.7,34.2,27.28,West,270,4.9,7.6,64,0.00,,,0.00,WUHU216HW,2013-01-11 07:43:00,
2013-01-11 00:48:00,44.8,33.8,27.28,WSW,248,4.9,8.3,65,0.00,,,0.00,WUHU216HW,2013-01-11 07:48:00,
2013-01-11 00:53:00,44.3,33.6,27.29,WSW,248,4.7,8.3,66,0.00,,,0.00,WUHU216HW,2013-01-11 07:53:00,
2013-01-11 00:58:00,43.7,33.8,27.30,SW,225,4.9,7.2,68,0.00,,,0.00,WUHU216HW,2013-01-11 07:58:00,
2013-01-11 01:03:00,43.0,34.0,27.31,WSW,248,6.9,7.4,70,0.00,,,0.00,WUHU216HW,2013-01-11 08:03:00,
2013-01-11 01:08:00,42.5,33.9,27.31,West,270,5.4,9.2,71,0.00,,,0.00,WUHU216HW,2013-01-11 08:08:00,
2013-01-11 01:13:00,42.1,33.1,27.30,West,270,3.4,9.2,70,0.01,,,0.00,WUHU216HW,2013-01-11 08:13:00,
2013-01-11 01:18:00,42.1,33.5,27.31,WSW,248,4.0,6.9,71,0.01,,,0.00,WUHU216HW,2013-01-11 08:18:00,
2013-01-11 01:23:00,42.1,33.1,27.31,SSW,203,4.5,6.0,70,0.01,,,0.00,WUHU216HW,2013-01-11 08:23:00,
2013-01-11 01:28:00,42.1,33.8,27.31,WSW,248,3.4,4.9,72,0.02,,,0.02,WUHU216HW,2013-01-11 08:28:00,
2013-01-11 01:33:00,42.1,33.8,27.32,West,270,6.9,6.9,72,0.02,,,0.02,WUHU216HW,2013-01-11 08:33:00,
2013-01-11 01:38:00,42.1,33.5,27.32,WNW,293,4.9,6.9,71,0.03,,,0.02,WUHU216HW,2013-01-11 08:38:00,
2013-01-11 01:43:00,41.8,32.8,27.32,WSW,248,3.8,6.0,70,0.03,,,0.02,WUHU216HW,2013-01-11 08:43:00,
2013-01-11 01:48:00,41.8,32.8,27.33,WSW,248,4.7,5.4,70,0.03,,,0.02,WUHU216HW,2013-01-11 08:48:00,
2013-01-11 01:53:00,41.4,32.1,27.33,West,270,5.4,6.3,69,0.03,,,0.02,WUHU216HW,2013-01-11 08:53:00,
2013-01-11 01:58:00,41.4,32.1,27.33,SW,225,3.8,6.3,69,0.03,,,0.02,WUHU216HW,2013-01-11 08:58:00,
2013-01-11 02:03:00,41.4,31.7,27.33,WSW,248,4.5,4.7,68,0.03,,,0.02,WUHU216HW,2013-01-11 09:03:00,
2013-01-11 02:08:00,41.4,31.2,27.34,SW,225,6.9,6.9,67,0.02,,,0.02,WUHU216HW,2013-01-11 09:08:00,
2013-01-11 02:13:00,41.2,30.7,27.34,WSW,248,5.4,7.8,66,0.02,,,0.02,WUHU216HW,2013-01-11 09:13:00,
2013-01-11 02:18:00,41.2,30.3,27.35,WSW,248,5.4,10.3,65,0.02,,,0.02,WUHU216HW,2013-01-11 09:18:00,
2013-01-11 02:23:00,41.0,30.5,27.35,SW,225,6.0,10.3,66,0.02,,,0.02,WUHU216HW,2013-01-11 09:23:00,
2013-01-11 02:28:00,40.7,30.5,27.35,West,270,3.8,9.2,67,0.01,,,0.02,WUHU216HW,2013-01-11 09:28:00,
2013-01-11 02:33:00,40.5,30.3,27.35,SW,225,2.5,6.5,67,0.01,,,0.02,WUHU216HW,2013-01-11 09:33:00,
2013-01-11 02:38:00,40.5,30.3,27.35,West,270,4.0,4.3,67,0.00,,,0.02,WUHU216HW,2013-01-11 09:38:00,
2013-01-11 02:43:00,40.7,30.2,27.35,SSW,203,2.9,7.6,66,0.00,,,0.02,WUHU216HW,2013-01-11 09:43:00,
2013-01-11 02:48:00,40.7,30.2,27.35,WSW,248,2.2,7.6,66,0.00,,,0.02,WUHU216HW,2013-01-11 09:48:00,
2013-01-11 02:53:00,40.9,30.3,27.35,SSW,203,1.8,3.6,66,0.00,,,0.02,WUHU216HW,2013-01-11 09:53:00,
2013-01-11 02:58:00,40.9,30.3,27.36,South,180,0.9,3.4,66,0.00,,,0.02,WUHU216HW,2013-01-11 09:58:00,
2013-01-11 03:03:00,41.0,30.5,27.37,SSW,203,2.0,3.4,66,0.00,,,0.02,WUHU216HW,2013-01-11 10:03:00,
2013-01-11 03:08:00,41.0,30.9,27.38,SW,225,2.5,4.5,67,0.00,,,0.02,WUHU216HW,2013-01-11 10:08:00,
2013-01-11 03:13:00,41.0,30.9,27.38,SE,135,2.0,4.5,67,0.00,,,0.02,WUHU216HW,2013-01-11 10:13:00,
2013-01-11 03:18:00,40.7,31.0,27.39,South,180,2.9,2.9,68,0.00,,,0.02,WUHU216HW,2013-01-11 10:18:00,
2013-01-11 03:23:00,40.5,31.5,27.38,SSE,158,2.0,2.9,70,0.00,,,0.02,WUHU216HW,2013-01-11 10:23:00,
2013-01-11 03:28:00,40.3,31.0,27.38,SSE,158,0.9,2.5,69,0.00,,,0.02,WUHU216HW,2013-01-11 10:28:00,
2013-01-11 03:33:00,40.3,31.3,27.39,SSE,158,1.1,1.8,70,0.00,,,0.02,WUHU216HW,2013-01-11 10:33:00,
2013-01-11 03:38:00,40.3,31.3,27.39,ENE,68,0.0,1.3,70,0.00,,,0.02,WUHU216HW,2013-01-11 10:38:00,
2013-01-11 03:43:00,40.3,31.3,27.38,North,0,1.3,1.3,70,0.00,,,0.02,WUHU216HW,2013-01-11 10:43:00,
2013-01-11 03:48:00,40.3,31.3,27.39,NW,315,0.0,1.3,70,0.00,,,0.02,WUHU216HW,2013-01-11 10:48:00,
2013-01-11 03:53:00,40.3,31.3,27.39,ENE,68,1.3,1.3,70,0.00,,,0.02,WUHU216HW,2013-01-11 10:53:00,
2013-01-11 03:58:00,40.1,31.1,27.39,NNW,338,0.7,1.3,70,0.00,,,0.02,WUHU216HW,2013-01-11 10:58:00,
2013-01-11 04:03:00,40.0,31.0,27.39,East,90,0.2,1.3,70,0.00,,,0.02,WUHU216HW,2013-01-11 11:03:00,
2013-01-11 04:08:00,40.0,31.0,27.39,ENE,68,0.4,1.3,70,0.00,,,0.02,WUHU216HW,2013-01-11 11:08:00,
2013-01-11 04:13:00,40.0,31.0,27.39,ESE,113,0.2,0.4,70,0.00,,,0.02,WUHU216HW,2013-01-11 11:13:00,
2013-01-11 04:18:00,40.1,31.1,27.39,WNW,293,0.0,0.2,70,0.00,,,0.02,WUHU216HW,2013-01-11 11:18:00,
2013-01-11 04:23:00,40.1,31.5,27.39,ENE,68,0.2,0.4,71,0.00,,,0.02,WUHU216HW,2013-01-11 11:23:00,
2013-01-11 04:28:00,40.1,31.5,27.39,ENE,68,0.0,0.4,71,0.00,,,0.02,WUHU216HW,2013-01-11 11:28:00,
2013-01-11 04:33:00,40.1,31.5,27.39,North,0,0.2,0.7,71,0.00,,,0.02,WUHU216HW,2013-01-11 11:33:00,
2013-01-11 04:38:00,40.1,31.1,27.39,ESE,113,0.2,0.7,70,0.00,,,0.02,WUHU216HW,2013-01-11 11:38:00,
2013-01-11 04:43:00,40.1,31.1,27.39,South,180,0.4,0.4,70,0.00,,,0.02,WUHU216HW,2013-01-11 11:43:00,
2013-01-11 04:48:00,40.3,31.3,27.39,South,180,0.2,0.4,70,0.00,,,0.02,WUHU216HW,2013-01-11 11:48:00,
2013-01-11 04:53:00,40.5,31.5,27.39,East,90,0.0,0.4,70,0.00,,,0.02,WUHU216HW,2013-01-11 11:53:00,
2013-01-11 04:58:00,40.5,31.5,27.39,East,90,0.0,0.7,70,0.00,,,0.02,WUHU216HW,2013-01-11 11:58:00,
2013-01-11 05:03:00,40.3,31.3,27.40,NNE,23,0.0,0.7,70,0.00,,,0.02,WUHU216HW,2013-01-11 12:03:00,
2013-01-11 05:08:00,40.3,31.3,27.40,NNE,23,0.0,0.2,70,0.00,,,0.02,WUHU216HW,2013-01-11 12:08:00,
2013-01-11 05:13:00,40.3,31.3,27.39,NNE,23,0.7,0.7,70,0.00,,,0.02,WUHU216HW,2013-01-11 12:13:00,
2013-01-11 05:18:00,40.3,31.3,27.40,North,0,0.2,0.7,70,0.00,,,0.02,WUHU216HW,2013-01-11 12:18:00,
2013-01-11 05:23:00,40.5,31.5,27.39,North,0,0.0,0.2,70,0.00,,,0.02,WUHU216HW,2013-01-11 12:23:00,
2013-01-11 05:28:00,40.5,31.2,27.39,North,0,0.0,0.2,69,0.00,,,0.02,WUHU216HW,2013-01-11 12:28:00,
2013-01-11 05:33:00,40.5,31.2,27.40,North,0,0.0,0.0,69,0.00,,,0.02,WUHU216HW,2013-01-11 12:33:00,
2013-01-11 05:38:00,40.5,31.2,27.40,North,0,0.0,0.0,69,0.00,,,0.02,WUHU216HW,2013-01-11 12:38:00,
2013-01-11 05:43:00,40.5,31.2,27.40,North,0,0.0,0.0,69,0.00,,,0.02,WUHU216HW,2013-01-11 12:43:00,
2013-01-11 05:48:00,40.5,31.2,27.40,North,0,0.0,0.0,69,0.00,,,0.02,WUHU216HW,2013-01-11 12:48:00,
2013-01-11 05:53:00,40.5,31.2,27.40,North,0,0.0,0.0,69,0.00,,,0.02,WUHU216HW,2013-01-11 12:53:00,
2013-01-11 05:58:00,40.5,31.2,27.40,NNE,23,0.0,0.0,69,0.00,,,0.02,WUHU216HW,2013-01-11 12:58:00,
2013-01-11 06:03:00,40.5,31.2,27.40,North,0,0.0,0.0,69,0.00,,,0.02,WUHU216HW,2013-01-11 13:03:00,
2013-01-11 06:08:00,40.3,31.0,27.40,North,0,0.0,0.0,69,0.00,,,0.02,WUHU216HW,2013-01-11 13:08:00,
2013-01-11 06:13:00,40.3,31.0,27.40,North,0,0.0,0.0,69,0.00,,,0.02,WUHU216HW,2013-01-11 13:13:00,
2013-01-11 06:18:00,40.1,30.8,27.40,North,0,0.0,0.0,69,0.00,,,0.02,WUHU216HW,2013-01-11 13:18:00,
2013-01-11 06:23:00,40.0,31.0,27.40,North,0,0.0,0.0,70,0.00,,,0.02,WUHU216HW,2013-01-11 13:23:00,
2013-01-11 06:28:00,40.0,31.0,27.40,NNW,338,0.0,0.0,70,0.00,,,0.02,WUHU216HW,2013-01-11 13:28:00,
2013-01-11 06:33:00,39.8,30.8,27.40,NNW,338,0.0,0.2,70,0.00,,,0.02,WUHU216HW,2013-01-11 13:33:00,
2013-01-11 06:38:00,39.6,30.6,27.40,NNW,338,0.0,0.2,70,0.00,,,0.02,WUHU216HW,2013-01-11 13:38:00,
2013-01-11 06:43:00,39.4,30.4,27.41,NW,315,0.2,0.4,70,0.00,,,0.02,WUHU216HW,2013-01-11 13:43:00,
2013-01-11 06:48:00,39.2,30.2,27.41,NW,315,0.0,0.4,70,0.00,,,0.02,WUHU216HW,2013-01-11 13:48:00,
2013-01-11 06:53:00,39.2,30.2,27.41,North,0,0.0,0.4,70,0.00,,,0.02,WUHU216HW,2013-01-11 13:53:00,
2013-01-11 10:00:00,43.0,29.6,27.45,SSW,203,3.8,3.8,59,0.00,,,0.02,WUHU216HW,2013-01-11 17:00:00,
2013-01-11 10:05:00,43.0,29.6,27.45,SSW,203,3.8,3.8,59,0.00,,,0.04,WUHU216HW,2013-01-11 17:05:00,
2013-01-11 10:10:00,43.0,29.6,27.45,SSW,203,3.8,3.8,59,0.00,,,0.04,WUHU216HW,2013-01-11 17:10:00,
2013-01-11 10:30:00,43.9,29.6,27.45,SW,225,3.6,3.6,57,0.00,,,0.04,WUHU216HW,2013-01-11 17:30:00,
2013-01-11 10:35:00,44.1,29.3,27.45,WSW,248,2.5,3.6,56,0.00,,,0.04,WUHU216HW,2013-01-11 17:35:00,
2013-01-11 10:40:00,44.1,29.3,27.45,WSW,248,2.5,3.6,56,0.00,,,0.04,WUHU216HW,2013-01-11 17:40:00,
2013-01-11 11:00:00,44.6,28.5,27.44,SSW,203,3.1,3.1,53,0.00,,,0.04,WUHU216HW,2013-01-11 18:00:00,
2013-01-11 11:05:00,44.5,27.9,27.44,WSW,248,1.1,3.1,52,0.00,,,0.04,WUHU216HW,2013-01-11 18:05:00,
2013-01-11 11:10:00,44.5,27.9,27.44,WSW,248,1.1,3.1,52,0.00,,,0.04,WUHU216HW,2013-01-11 18:10:00,
2013-01-11 11:30:00,45.7,27.1,27.43,SW,225,2.7,2.7,48,0.00,,,0.04,WUHU216HW,2013-01-11 18:30:00,
2013-01-11 11:35:00,45.7,27.1,27.43,WSW,248,3.1,3.1,48,0.00,,,0.04,WUHU216HW,2013-01-11 18:35:00,
2013-01-11 11:40:00,45.7,27.1,27.43,WSW,248,3.1,3.1,48,0.00,,,0.04,WUHU216HW,2013-01-11 18:40:00,
2013-01-11 12:00:00,46.4,25.0,27.41,WSW,248,3.4,3.4,43,0.00,,,0.04,WUHU216HW,2013-01-11 19:00:00,
2013-01-11 12:05:00,46.4,25.6,27.41,SSW,203,1.6,3.4,44,0.00,,,0.04,WUHU216HW,2013-01-11 19:05:00,
2013-01-11 12:10:00,46.4,25.6,27.41,SSW,203,1.6,1.6,44,0.00,,,0.04,WUHU216HW,2013-01-11 19:10:00,
2013-01-11 12:30:00,47.2,25.7,27.39,NW,315,2.9,2.9,43,0.00,,,0.04,WUHU216HW,2013-01-11 19:30:00,
2013-01-11 12:35:00,47.0,25.5,27.39,SW,225,3.4,3.4,43,0.00,,,0.04,WUHU216HW,2013-01-11 19:35:00,
2013-01-11 12:40:00,47.0,25.5,27.39,SW,225,3.4,3.4,43,0.00,,,0.04,WUHU216HW,2013-01-11 19:40:00,
2013-01-11 13:00:00,47.5,24.4,27.38,SW,225,2.0,2.0,40,0.00,,,0.04,WUHU216HW,2013-01-11 20:00:00,
2013-01-11 13:05:00,47.5,24.4,27.38,SW,225,2.0,2.0,40,0.00,,,0.04,WUHU216HW,2013-01-11 20:05:00,
2013-01-11 13:10:00,47.5,24.4,27.38,SW,225,2.0,2.0,40,0.00,,,0.04,WUHU216HW,2013-01-11 20:10:00,
2013-01-11 13:30:00,47.9,23.4,27.37,WSW,248,1.1,1.1,38,0.00,,,0.04,WUHU216HW,2013-01-11 20:30:00,
2013-01-11 13:35:00,47.9,23.4,27.37,WSW,248,1.8,1.8,38,0.00,,,0.04,WUHU216HW,2013-01-11 20:35:00,
2013-01-11 13:40:00,47.9,23.4,27.37,WSW,248,1.8,1.8,38,0.00,,,0.04,WUHU216HW,2013-01-11 20:40:00,
2013-01-11 14:00:00,48.1,22.2,27.37,SW,225,2.5,2.5,36,0.00,,,0.04,WUHU216HW,2013-01-11 21:00:00,
2013-01-11 14:05:00,47.9,22.1,27.37,WSW,248,1.8,2.5,36,0.00,,,0.04,WUHU216HW,2013-01-11 21:05:00,
2013-01-11 14:10:00,47.9,22.1,27.37,WSW,248,1.8,1.8,36,0.00,,,0.04,WUHU216HW,2013-01-11 21:10:00,
2013-01-11 14:30:00,48.2,19.7,27.36,WNW,293,2.5,2.5,32,0.00,,,0.04,WUHU216HW,2013-01-11 21:30:00,
2013-01-11 14:35:00,48.2,20.3,27.36,WSW,248,2.7,2.7,33,0.00,,,0.04,WUHU216HW,2013-01-11 21:35:00,
2013-01-11 14:40:00,48.2,20.3,27.36,WSW,248,2.7,2.7,33,0.00,,,0.04,WUHU216HW,2013-01-11 21:40:00,
2013-01-11 15:00:00,48.4,20.5,27.36,SW,225,0.7,0.7,33,0.00,,,0.04,WUHU216HW,2013-01-11 22:00:00,
2013-01-11 15:05:00,48.4,20.5,27.36,West,270,4.0,4.0,33,0.00,,,0.04,WUHU216HW,2013-01-11 22:05:00,
2013-01-11 15:10:00,48.4,20.5,27.36,West,270,4.0,4.0,33,0.00,,,0.04,WUHU216HW,2013-01-11 22:10:00,
2013-01-11 15:30:00,48.6,20.0,27.36,SSW,203,2.2,2.2,32,0.00,,,0.04,WUHU216HW,2013-01-11 22:30:00,
2013-01-11 15:35:00,48.6,20.0,27.36,SSW,203,4.7,4.7,32,0.00,,,0.04,WUHU216HW,2013-01-11 22:35:00,
2013-01-11 15:40:00,48.6,20.0,27.36,SSW,203,4.7,4.7,32,0.00,,,0.04,WUHU216HW,2013-01-11 22:40:00,
2013-01-11 16:00:00,48.6,20.0,27.35,West,270,2.2,2.2,32,0.00,,,0.04,WUHU216HW,2013-01-11 23:00:00,
2013-01-11 16:05:00,48.6,20.0,27.35,West,270,2.2,2.2,32,0.00,,,0.04,WUHU216HW,2013-01-11 23:05:00,
2013-01-11 16:10:00,48.6,20.0,27.35,West,270,2.2,2.2,32,0.00,,,0.04,WUHU216HW,2013-01-11 23:10:00,
2013-01-11 16:30:00,47.9,17.1,27.34,SW,225,2.0,2.0,29,0.00,,,0.04,WUHU216HW,2013-01-11 23:30:00,
2013-01-11 16:35:00,47.9,17.1,27.34,SW,225,2.2,2.2,29,0.00,,,0.04,WUHU216HW,2013-01-11 23:35:00,
2013-01-11 16:40:00,47.9,17.1,27.34,SW,225,2.2,2.2,29,0.00,,,0.04,WUHU216HW,2013-01-11 23:40:00,
2013-01-11 17:00:00,47.2,16.5,27.35,SW,225,4.9,4.9,29,0.00,,,0.04,WUHU216HW,2013-01-12 00:00:00,
2013-01-11 17:05:00,47.2,16.5,27.35,WSW,248,2.5,4.9,29,0.00,,,0.04,WUHU216HW,2013-01-12 00:05:00,
2013-01-11 17:10:00,47.2,16.5,27.35,WSW,248,2.5,4.9,29,0.00,,,0.04,WUHU216HW,2013-01-12 00:10:00,
2013-01-11 17:30:00,46.1,16.4,27.35,NW,315,1.8,1.8,30,0.00,,,0.04,WUHU216HW,2013-01-12 00:30:00,
2013-01-11 17:35:00,46.1,15.5,27.35,SSW,203,0.4,1.8,29,0.00,,,0.04,WUHU216HW,2013-01-12 00:35:00,
2013-01-11 17:40:00,46.1,15.5,27.35,SSW,203,0.4,1.1,29,0.00,,,0.04,WUHU216HW,2013-01-12 00:40:00,
2013-01-11 18:00:00,44.6,15.1,27.35,WSW,248,1.6,1.6,30,0.00,,,0.04,WUHU216HW,2013-01-12 01:00:00,
2013-01-11 18:05:00,44.6,15.1,27.35,WSW,248,0.9,1.6,30,0.00,,,0.04,WUHU216HW,2013-01-12 01:05:00,
2013-01-11 18:10:00,44.6,15.1,27.35,WSW,248,0.9,0.9,30,0.00,,,0.04,WUHU216HW,2013-01-12 01:10:00,
2013-01-11 18:30:00,43.4,15.3,27.35,NNE,23,0.2,0.2,32,0.00,,,0.04,WUHU216HW,2013-01-12 01:30:00,
2013-01-11 18:35:00,43.4,15.3,27.35,NNE,23,0.2,0.2,32,0.00,,,0.04,WUHU216HW,2013-01-12 01:35:00,
2013-01-11 18:40:00,43.4,15.3,27.35,NNE,23,0.2,0.2,32,0.00,,,0.04,WUHU216HW,2013-01-12 01:40:00,
2013-01-11 19:00:00,42.1,16.2,27.34,NE,45,0.0,0.0,35,0.00,,,0.04,WUHU216HW,2013-01-12 02:00:00,
2013-01-11 19:05:00,42.1,16.2,27.34,NE,45,0.0,0.0,35,0.00,,,0.04,WUHU216HW,2013-01-12 02:05:00,
2013-01-11 19:10:00,42.1,16.2,27.34,NE,45,0.0,0.0,35,0.00,,,0.04,WUHU216HW,2013-01-12 02:10:00,
2013-01-11 19:30:00,40.3,15.9,27.34,ESE,113,0.0,0.0,37,0.00,,,0.04,WUHU216HW,2013-01-12 02:30:00,
2013-01-11 19:35:00,40.3,15.9,27.34,ESE,113,0.0,0.0,37,0.00,,,0.04,WUHU216HW,2013-01-12 02:35:00,
2013-01-11 19:40:00,40.3,15.9,27.34,ESE,113,0.0,0.0,37,0.00,,,0.04,WUHU216HW,2013-01-12 02:40:00,
2013-01-11 20:00:00,39.6,16.6,27.35,NNW,338,0.0,0.0,39,0.00,,,0.04,WUHU216HW,2013-01-12 03:00:00,
2013-01-11 20:05:00,39.6,16.6,27.35,NNW,338,0.0,0.0,39,0.00,,,0.04,WUHU216HW,2013-01-12 03:05:00,
2013-01-11 20:10:00,39.6,16.6,27.35,NNW,338,0.0,0.0,39,0.00,,,0.04,WUHU216HW,2013-01-12 03:10:00,
2013-01-11 20:30:00,38.5,16.8,27.35,North,0,0.0,0.0,41,0.00,,,0.04,WUHU216HW,2013-01-12 03:30:00,
2013-01-11 20:35:00,38.5,16.8,27.35,North,0,0.0,0.0,41,0.00,,,0.04,WUHU216HW,2013-01-12 03:35:00,
2013-01-11 20:40:00,38.5,16.8,27.35,North,0,0.0,0.0,41,0.00,,,0.04,WUHU216HW,2013-01-12 03:40:00,
2013-01-11 21:00:00,37.8,16.7,27.35,ENE,68,0.0,0.0,42,0.00,,,0.04,WUHU216HW,2013-01-12 04:00:00,
2013-01-11 21:05:00,37.8,16.7,27.35,ENE,68,0.0,0.0,42,0.00,,,0.04,WUHU216HW,2013-01-12 04:05:00,
2013-01-11 21:10:00,37.8,16.7,27.35,ENE,68,0.0,0.0,42,0.00,,,0.04,WUHU216HW,2013-01-12 04:10:00,
2013-01-11 21:30:00,37.1,17.1,27.36,SW,225,0.0,0.0,44,0.00,,,0.04,WUHU216HW,2013-01-12 04:30:00,
2013-01-11 21:35:00,37.1,17.1,27.36,SW,225,0.0,0.0,44,0.00,,,0.04,WUHU216HW,2013-01-12 04:35:00,
2013-01-11 21:40:00,37.1,17.1,27.36,SW,225,0.0,0.0,44,0.00,,,0.04,WUHU216HW,2013-01-12 04:40:00,
2013-01-11 22:00:00,36.4,16.9,27.36,NNE,23,0.0,0.0,45,0.00,,,0.04,WUHU216HW,2013-01-12 05:00:00,
2013-01-11 22:01:00,36.4,16.9,27.36,NNE,23,0.0,0.0,45,0.00,,,0.04,WUHU216HW,2013-01-12 05:01:00,
2013-01-11 22:06:00,36.4,16.9,27.36,NNE,23,0.0,0.0,45,0.00,,,0.04,WUHU216HW,2013-01-12 05:06:00,
2013-01-11 22:30:00,34.9,17.6,27.36,NNE,23,0.0,0.0,49,0.00,,,0.04,WUHU216HW,2013-01-12 05:30:00,
2013-01-11 22:35:00,34.9,17.6,27.36,NNE,23,0.0,0.0,49,0.00,,,0.04,WUHU216HW,2013-01-12 05:35:00,
2013-01-11 22:40:00,34.9,17.6,27.36,NNE,23,0.0,0.0,49,0.00,,,0.04,WUHU216HW,2013-01-12 05:40:00,
2013-01-11 23:00:00,33.7,17.8,27.36,ENE,68,0.0,0.0,52,0.00,,,0.04,WUHU216HW,2013-01-12 06:00:00,
2013-01-11 23:05:00,33.7,17.8,27.36,ENE,68,0.0,0.0,52,0.00,,,0.04,WUHU216HW,2013-01-12 06:05:00,
2013-01-11 23:10:00,33.7,17.8,27.36,ENE,68,0.0,0.0,52,0.00,,,0.04,WUHU216HW,2013-01-12 06:10:00,
2013-01-11 23:30:00,34.0,17.3,27.37,ENE,68,0.0,0.0,50,0.00,,,0.04,WUHU216HW,2013-01-12 06:30:00,
2013-01-11 23:35:00,34.0,17.3,27.37,ENE,68,0.0,0.0,50,0.00,,,0.04,WUHU216HW,2013-01-12 06:35:00,
2013-01-11 23:40:00,34.0,17.3,27.37,ENE,68,0.0,0.0,50,0.00,,,0.04,WUHU216HW,2013-01-12 06:40:00,